Flag for Canada Weather past 2 weeks in Halton Hills, Ontario, Canada

Now
23 °F

Broken clouds.


Feels Like: 14 °F
Forecast: 20 / 28 °F
Wind: 8 mph from North

Location: Toronto Pearson International Airport

Current Time: Dec 20, 2014 at 9:35:19 AM

Latest Report: Dec 20, 2014 at 9:00 AM


Visibility: 15 mi

Pressure: 30.33 "Hg

Humidity: 93%

Dew point: 21 °F

Location of Halton HillsLocation

Historic Weather in Halton Hills — Graph

°F

Halton Hills temperature yesterday

Maximum temperature yesterday: 30 °F (at 1:00 PM)
Minimum temperature yesterday: 23 °F (at 6:00 AM)
Average temperature yesterday: 27 °F

Past Weeks' High & Low Weather Summary

 TemperatureHumidityPressure
High41 °F (Dec 6, 1:00 PM)100% (Dec 14, 2:00 AM)30.81 "Hg (Dec 14, 2:00 AM)
Low21 °F (Dec 7, 6:00 AM)34% (Dec 7, 1:00 PM)29.73 "Hg (Dec 16, 2:00 PM)
Average32 °F81%30.12 "Hg
* Reported Dec 5 8:00 AM — Dec 20 8:00 AM, Halton Hills, Weather by CustomWeather, © 2014

Note: Actual official high and low records may vary slightly from our data, if they occured in-between our weather recording intervals... More about our weather records

Advertising

Halton Hills weather history for previous 24 hours

 ConditionsComfort  
Time TempWeatherWind HumidityBarometerVisibility
8:00 AM
Dec 20
21 °FBroken clouds.6 mph93%30.32 "Hg15 mi
7:00 AM23 °FPassing clouds.8 mph86%30.32 "Hg15 mi
6:00 AM21 °FPassing clouds.6 mph86%30.32 "Hg15 mi
5:00 AM21 °FPassing clouds.6 mph86%30.30 "Hg15 mi
4:00 AM21 °FPassing clouds.6 mph86%30.28 "Hg15 mi
3:00 AM23 °FPassing clouds.7 mph86%30.27 "Hg15 mi
2:00 AM25 °FPassing clouds.8 mph80%30.26 "Hg15 mi
1:00 AM25 °FPassing clouds.7 mph86%30.28 "Hg15 mi
12:00 AM25 °FPassing clouds.8 mph86%30.29 "Hg15 mi
11:00 PM
Dec 19
27 °FPassing clouds.10 mph74%30.30 "Hg15 mi
10:00 PM27 °FPartly cloudy.7 mph74%30.30 "Hg15 mi
9:00 PM27 °FPartly cloudy.10 mph74%30.29 "Hg15 mi
8:00 PM28 °FPassing clouds.15 mph69%30.28 "Hg15 mi
7:00 PM28 °FPartly cloudy.15 mph69%30.28 "Hg15 mi
6:00 PM28 °FPassing clouds.14 mph69%30.27 "Hg15 mi
5:00 PM28 °FPartly cloudy.16 mph69%30.23 "Hg15 mi
4:00 PM30 °FPartly sunny.9 mph69%30.22 "Hg15 mi
3:00 PM30 °FPartly sunny.12 mph64%30.21 "Hg15 mi
2:00 PM30 °FPartly sunny.13 mph64%30.20 "Hg15 mi
1:00 PM30 °FBroken clouds.16 mph64%30.20 "Hg15 mi
12:00 PM28 °FBroken clouds.15 mph69%30.21 "Hg15 mi
11:00 AM27 °FBroken clouds.15 mph74%30.23 "Hg15 mi
10:00 AM25 °FPartly sunny.12 mph80%30.23 "Hg15 mi
9:00 AM25 °FPartly sunny.10 mph80%30.22 "Hg15 mi
Weather by CustomWeather, © 2014

See weather overviewHow to use our weather pages